Location: Unspecified
(52.4292°N, 19.3359°E)
Time: 23:35:32
(UTC+02:00)

BlueWalker 3 - Visible Passes

Search period start: 19 April 2024 00:00
Search period end: 29 April 2024 00:00
Orbit: 485 x 495 km, 53.2° (Epoch: 19 April)

Date Brightness Start Highest point End Pass type
(mag) Time Alt. Az. Time Alt. Az. Time Alt. Az.
19 Apr 2.9 20:35:11 10° SSW 20:38:25 27° SE 20:41:40 10° E visible
19 Apr 1.7 22:12:30 10° WSW 22:16:19 79° SSE 22:17:50 35° E visible
19 Apr 3.9 23:50:48 10° W 23:52:17 22° W 23:52:17 22° W visible
20 Apr 1.8 21:47:52 10° WSW 21:51:41 78° SSE 21:54:36 17° ENE visible
20 Apr 2.6 23:26:09 10° W 23:29:02 48° WNW 23:29:02 48° WNW visible
21 Apr 1.8 21:23:13 10° WSW 21:27:02 76° SSE 21:30:53 10° ENE visible
21 Apr 1.9 23:01:31 10° W 23:05:21 78° N 23:05:31 75° NE visible
22 Apr 4.7 00:39:48 10° WNW 00:39:56 11° WNW 00:39:56 11° WNW visible
22 Apr 1.8 20:58:33 10° WSW 21:02:22 74° SSE 21:06:12 10° ENE visible
22 Apr 1.9 22:36:50 10° W 22:40:40 77° N 22:41:49 43° E visible
23 Apr 4.1 00:15:07 10° WNW 00:16:14 18° W 00:16:14 18° W visible
23 Apr 1.9 20:33:52 10° WSW 20:37:41 73° SSE 20:41:30 10° ENE visible
23 Apr 2.0 22:12:08 10° W 22:15:58 77° N 22:18:00 26° E visible
23 Apr 3.4 23:50:26 10° WNW 23:52:25 28° W 23:52:25 28° W visible
24 Apr 2.0 21:47:25 10° W 21:51:15 77° N 21:54:07 17° E visible
24 Apr 2.6 23:25:42 10° WNW 23:28:32 45° W 23:28:32 45° W visible
25 Apr 2.0 21:22:40 10° W 21:26:30 77° N 21:30:11 11° E visible
25 Apr 1.9 23:00:58 10° WNW 23:04:35 66° SW 23:04:35 66° SW visible
26 Apr 2.0 20:57:54 10° W 21:01:44 77° N 21:05:34 10° E visible
26 Apr 1.8 22:36:11 10° WNW 22:40:00 69° SSW 22:40:37 56° SE visible
27 Apr 4.6 00:14:50 10° W 00:15:01 11° W 00:15:01 11° W visible
27 Apr 1.8 22:11:24 10° WNW 22:15:14 71° SSW 22:16:37 37° SE visible
27 Apr 4.2 23:50:01 10° W 23:51:01 15° W 23:51:01 15° W visible
28 Apr 1.9 21:46:36 10° WNW 21:50:25 72° SSW 21:52:36 24° ESE visible
28 Apr 3.8 23:25:11 10° W 23:27:00 20° WSW 23:27:00 20° WSW visible
